Weslaco, TX

7:38 AM CDT on August 17, 2017 (GMT -0500)
Weslaco

Weather History for KT65 - December, 2012

Change the Weather History Date:

Wednesday, December 12, 2012

  Actual Average (KMFE) Record (KMFE)
Temperature  
Mean Temperature 56 °F -  
Max Temperature 69 °F 70 °F 90 °F (1981)
Min Temperature 42 °F 48 °F 26 °F (1894)
Degree Days  
Heating Degree Days 10    
Growing Degree Days 6 (Base 50)    
Moisture  
Dew Point 35 °F    
Average Humidity 49    
Maximum Humidity 79    
Minimum Humidity 29    
Precipitation  
Precipitation 0.00 in - - ()
Sea Level Pressure  
Sea Level Pressure 30.24 in    
Wind  
Wind Speed 4 mph (NNE)    
Max Wind Speed 10 mph    
Max Gust Speed 16 mph    
Visibility 10 miles    
Events      
Averages and records for this station are not official NWS values.
T = Trace of Precipitation, MM = Missing Value Source: NWS Daily Summary

Daily Weather History Graph

Daily Weather History Graph

Search for Another Location

Airport or City:

Trip Planner

Search our weather history database for the weather conditions in past years. The results will help you decide how hot, cold, wet, or windy it might be!

Date:

Astronomy

Dec. 12, 2012 Rise Set
Actual Time 7:10 AM CST 5:41 PM CST
Civil Twilight 6:44 AM CST 6:06 PM CST
Nautical Twilight 6:16 AM CST 6:35 PM CST
Astronomical Twilight 5:47 AM CST 7:03 PM CST
Moon 6:18 AM CST (12/12) 5:18 PM CST (12/12)
Length of Visible Light 11h 21m
Length of Day
10h 31m
Waning Crescent, 1% of the Moon is Illuminated
Dec 12
Waning Crescent
Dec 13
New
Dec 19
First Quarter
Dec 28
Full
Jan 4
Last Quarter

Hourly Weather History & Observations

Time (CST) Temp. Windchill Dew Point Humidity Pressure Visibility Wind Dir Wind Speed Gust Speed Precip Events Conditions
12:15 AM 52.7 °F - 29.1 °F 40% 30.23 in 10.0 mi North 3.5 mph - N/A   Unknown
12:35 AM 52.7 °F - 28.6 °F 40% 30.22 in 10.0 mi Calm Calm - N/A   Unknown
12:55 AM 52.3 °F - 28.2 °F 39% 30.22 in 10.0 mi North 4.6 mph - N/A   Unknown
1:15 AM 50.9 °F - 29.7 °F 44% 30.23 in 10.0 mi NNW 3.5 mph - N/A   Unknown
1:35 AM 50.0 °F - 29.7 °F 46% 30.22 in 10.0 mi NNW 3.5 mph - N/A   Unknown
1:55 AM 49.3 °F - 30.0 °F 48% 30.22 in 10.0 mi NNW 3.5 mph - N/A   Unknown
2:15 AM 47.1 °F - 28.6 °F 49% 30.21 in 10.0 mi NNW 3.5 mph - N/A   Unknown
2:35 AM 45.7 °F 43.4 °F 28.4 °F 51% 30.22 in 10.0 mi NW 4.6 mph - N/A   Unknown
2:55 AM 45.0 °F 42.6 °F 27.3 °F 50% 30.23 in 10.0 mi NW 4.6 mph - N/A   Unknown
3:15 AM 45.1 °F 42.0 °F 27.5 °F 50% 30.22 in 10.0 mi NNW 5.8 mph - N/A   Unknown
3:35 AM 44.6 °F 42.2 °F 27.1 °F 50% 30.22 in 10.0 mi NNW 4.6 mph - N/A   Unknown
3:55 AM 43.9 °F 40.5 °F 26.8 °F 51% 30.23 in 10.0 mi NNW 5.8 mph - N/A   Unknown
4:15 AM 43.7 °F 40.3 °F 27.1 °F 52% 30.22 in 10.0 mi NNW 5.8 mph - N/A   Unknown
4:35 AM 43.2 °F 40.5 °F 26.6 °F 52% 30.22 in 10.0 mi NW 4.6 mph - N/A   Unknown
4:55 AM 42.4 °F 39.6 °F 27.5 °F 56% 30.22 in 10.0 mi NNW 4.6 mph - N/A   Unknown
5:15 AM 43.0 °F 40.3 °F 27.5 °F 54% 30.22 in 10.0 mi NNW 4.6 mph - N/A   Unknown
5:35 AM 42.8 °F 41.1 °F 27.3 °F 54% 30.23 in 10.0 mi NNW 3.5 mph - N/A   Unknown
5:55 AM 42.1 °F 39.2 °F 27.7 °F 57% 30.23 in 10.0 mi NNW 4.6 mph - N/A   Unknown
6:15 AM 42.3 °F 40.5 °F 27.5 °F 56% 30.24 in 10.0 mi NNW 3.5 mph - N/A   Unknown
6:35 AM 43.2 °F 40.5 °F 26.2 °F 51% 30.24 in 10.0 mi North 4.6 mph - N/A   Unknown
6:55 AM 42.8 °F 40.1 °F 26.6 °F 53% 30.25 in 10.0 mi NNW 4.6 mph - N/A   Unknown
7:15 AM 42.6 °F 40.9 °F 26.8 °F 54% 30.26 in 10.0 mi NNW 3.5 mph - N/A   Unknown
7:35 AM 42.8 °F 41.1 °F 27.0 °F 54% 30.27 in 7.0 mi NNW 3.5 mph - N/A   Unknown
7:55 AM 43.9 °F 41.3 °F 26.8 °F 51% 30.28 in 7.0 mi North 4.6 mph - N/A   Unknown
8:15 AM 45.9 °F 43.6 °F 25.7 °F 45% 30.28 in 10.0 mi North 4.6 mph - N/A   Unknown
8:35 AM 48.2 °F - 25.5 °F 41% 30.29 in 7.0 mi North 5.8 mph - N/A   Unknown
8:55 AM 50.5 °F - 26.6 °F 39% 30.30 in 10.0 mi North 6.9 mph - N/A   Unknown
9:15 AM 52.9 °F - 26.8 °F 36% 30.31 in 7.0 mi North 8.1 mph - N/A   Unknown
9:35 AM 54.3 °F - 27.3 °F 35% 30.31 in 7.0 mi NNW 8.1 mph - N/A   Unknown
9:55 AM 56.7 °F - 29.7 °F 36% 30.31 in 7.0 mi NNW 8.1 mph - N/A   Unknown
10:15 AM 58.6 °F - 32.0 °F 37% 30.31 in 7.0 mi North 5.8 mph - N/A   Unknown
10:35 AM 60.1 °F - 32.7 °F 36% 30.31 in 10.0 mi North 5.8 mph - N/A   Unknown
10:55 AM 61.5 °F - 35.6 °F 38% 30.31 in 10.0 mi NNE 6.9 mph - N/A   Unknown
11:15 AM 62.8 °F - 36.7 °F 38% 30.30 in 10.0 mi North 4.6 mph - N/A   Unknown
11:35 AM 63.5 °F - 37.0 °F 38% 30.30 in 10.0 mi NNE 6.9 mph - N/A   Unknown
11:55 AM 64.8 °F - 36.3 °F 35% 30.29 in 10.0 mi North 5.8 mph - N/A   Unknown
12:15 PM 65.3 °F - 34.0 °F 31% 30.28 in 10.0 mi North 5.8 mph - N/A   Unknown
12:35 PM 66.0 °F - 32.5 °F 29% 30.26 in 10.0 mi NE 4.6 mph - N/A   Unknown
12:55 PM 67.1 °F - 33.8 °F 29% 30.25 in 10.0 mi NNE 6.9 mph - N/A   Unknown
1:15 PM 67.3 °F - 34.3 °F 30% 30.24 in 10.0 mi NE 5.8 mph - N/A   Unknown
1:35 PM 67.8 °F - 34.7 °F 29% 30.23 in 10.0 mi NNE 10.4 mph 16.1 mph N/A   Unknown
1:55 PM 68.4 °F - 34.7 °F 29% 30.22 in 7.0 mi NE 5.8 mph - N/A   Unknown
2:15 PM 68.7 °F - 35.1 °F 29% 30.22 in 7.0 mi NNE 6.9 mph - N/A   Unknown
2:35 PM 69.1 °F - 36.1 °F 30% 30.22 in 10.0 mi ENE 4.6 mph - N/A   Unknown
2:55 PM 69.6 °F - 36.0 °F 29% 30.21 in 10.0 mi East 9.2 mph - N/A   Unknown
3:15 PM 69.4 °F - 35.6 °F 29% 30.21 in 10.0 mi East 4.6 mph - N/A   Unknown
3:35 PM 68.9 °F - 36.0 °F 30% 30.21 in 10.0 mi East 9.2 mph - N/A   Clear
3:55 PM 68.2 °F - 37.8 °F 33% 30.21 in 10.0 mi East 9.2 mph - N/A   Clear
4:15 PM 67.1 °F - 38.5 °F 35% 30.21 in 10.0 mi East 9.2 mph 16.1 mph N/A   Clear
4:35 PM 66.2 °F - 38.8 °F 37% 30.21 in 10.0 mi East 9.2 mph - N/A   Clear
4:55 PM 65.3 °F - 40.6 °F 40% 30.22 in 10.0 mi East 8.1 mph - N/A   Clear
5:15 PM 64.0 °F - 43.0 °F 46% 30.23 in 10.0 mi East 8.1 mph - N/A   Clear
5:35 PM 62.6 °F - 44.6 °F 52% 30.23 in 10.0 mi ENE 8.1 mph - N/A   Clear
6:15 PM 60.3 °F - 45.5 °F 58% 30.23 in 10.0 mi ENE 4.6 mph - N/A   Clear
6:55 PM 57.9 °F - 45.7 °F 64% 30.24 in 10.0 mi ENE 3.5 mph - N/A   Clear
7:15 PM 57.0 °F - 45.7 °F 66% 30.24 in 10.0 mi ENE 3.5 mph - N/A   Clear
7:35 PM 56.3 °F - 45.7 °F 68% 30.24 in 10.0 mi Calm Calm - N/A   Clear
7:55 PM 55.0 °F - 45.0 °F 69% 30.24 in 10.0 mi Calm Calm - N/A   Clear
8:15 PM 54.5 °F - 45.0 °F 70% 30.25 in 10.0 mi Calm Calm - N/A   Clear
8:35 PM 54.9 °F - 45.5 °F 71% 30.25 in 10.0 mi Calm Calm - N/A   Clear
8:55 PM 53.8 °F - 45.0 °F 72% 30.25 in 10.0 mi Calm Calm - N/A   Clear
9:35 PM 52.7 °F - 45.5 °F 76% 30.25 in 10.0 mi NE 4.6 mph - N/A   Clear
9:55 PM 53.6 °F - 45.9 °F 75% 30.25 in 10.0 mi NE 5.8 mph - N/A   Clear
10:15 PM 53.2 °F - 45.5 °F 75% 30.24 in 10.0 mi NNE 4.6 mph - N/A   Clear
10:35 PM 52.7 °F - 45.3 °F 76% 30.24 in 10.0 mi NE 4.6 mph - N/A   Clear
10:55 PM 52.7 °F - 45.1 °F 75% 30.24 in 10.0 mi Calm Calm - N/A   Clear
11:15 PM 51.8 °F - 44.8 °F 77% 30.24 in 10.0 mi Calm Calm - N/A   Clear
11:35 PM 52.5 °F - 45.3 °F 76% 30.24 in 10.0 mi Calm Calm - N/A   Mostly Cloudy
11:55 PM 52.7 °F - 46.2 °F 79% 30.23 in 10.0 mi NNE 3.5 mph - N/A   Overcast